SM2FXT-13 Weather Reports


time (UTC)temp
C
wind
direction
speed
KPH
gust
KPH
rain 1hr
cm
rain 24hr
cm
rain mn
cm
humidity
%
barometer
mb
20260507123004 10 143 4.8 12.9 0.00 0.23 0.23 81 1014.8
20260507122003 8 138 4.8 12.9 0.00 0.23 0.23 83 1014.8
20260507120004 7 199 3.2 8.0 0.00 0.23 0.23 88 1014.8
20260507115003 6 52 3.2 8.0 0.03 0.23 0.23 91 1014.8
20260507114002 5 127 3.2 11.3 0.03 0.23 0.23 94 1014.8
20260507112003 3 138 4.8 11.3 0.03 0.23 0.23 96 1014.8
20260507110004 3 166 4.8 12.9 0.10 0.23 0.23 98 1015.0
20260507105002 3 108 1.6 6.4 0.13 0.20 0.20 97 1015.1
20260507104003 3 110 1.6 6.4 0.15 0.20 0.20 97 1015.2
20260507102003 3 116 3.2 11.3 0.20 0.20 0.20 93 1015.1
20260507101002 4 157 3.2 11.3 0.18 0.18 0.18 91 1014.9
20260507100003 4 132 4.8 8.0 0.15 0.15 0.15 91 1014.4
20260507095003 4 94 4.8 11.3 0.10 0.10 0.10 90 1014.3
20260507094003 3 145 0.0 4.8 0.03 0.03 0.03 86 1014.3
20260507093003 4 258 1.6 6.4 0.00 0.00 0.00 84 1014.5
20260507092003 5 279 1.6 6.4 0.00 0.00 0.00 82 1014.4
20260507091002 7 259 3.2 14.5 0.00 0.00 0.00 73 1014.2
20260507090005 8 303 3.2 11.3 0.00 0.00 0.00 62 1014.0
20260507085002 10 307 3.2 12.9 0.00 0.00 0.00 54 1013.7
20260507084003 11 160 4.8 14.5 0.00 0.00 0.00 49 1013.6
20260507083004 12 139 4.8 12.9 0.00 0.00 0.00 46 1013.6
20260507082003 13 127 4.8 14.5 0.00 0.00 0.00 47 1013.5
20260507081003 12 159 4.8 12.9 0.00 0.00 0.00 51 1013.5
20260507080003 11 132 4.8 12.9 0.00 0.00 0.00 56 1013.5
20260507075003 12 161 1.6 11.3 0.00 0.00 0.00 56 1013.6
20260507074003 11 135 3.2 11.3 0.00 0.00 0.00 55 1013.5
20260507073004 11 116 3.2 11.3 0.00 0.00 0.00 58 1013.7
20260507072003 11 199 3.2 8.0 0.00 0.00 0.00 56 1013.6
20260507071003 11 169 1.6 8.0 0.00 0.00 0.00 59 1013.5
20260507070007 10 250 1.6 6.4 0.00 0.00 0.00 58 1013.5
20260507065002 11 223 1.6 6.4 0.00 0.00 0.00 57 1013.6
20260507064003 11 167 0.0 4.8 0.00 0.00 0.00 59 1013.4
20260507063004 11 175 1.6 4.8 0.00 0.00 0.00 60 1013.5
20260507062003 11 311 0.0 4.8 0.00 0.00 0.00 60 1013.4
20260507061003 10 221 1.6 4.8 0.00 0.00 0.00 62 1013.4
20260507060003 10 234 1.6 6.4 0.00 0.00 0.00 62 1013.3
20260507055003 11 230 1.6 8.0 0.00 0.00 0.00 60 1013.2
20260507054004 11 254 1.6 6.4 0.00 0.00 0.00 59 1013.2
20260507053004 11 304 1.6 6.4 0.00 0.00 0.00 60 1013.3
20260507052003 11 280 1.6 4.8 0.00 0.00 0.00 62 1013.2
20260507051003 10 253 1.6 6.4 0.00 0.00 0.00 63 1013.2
20260507050004 11 271 1.6 4.8 0.00 0.00 0.00 64 1013.2
20260507045003 10 213 0.0 4.8 0.00 0.00 0.00 68 1013.2
20260507044003 9 313 1.6 4.8 0.00 0.00 0.00 69 1013.1
20260507043004 9 215 1.6 6.4 0.00 0.00 0.00 71 1013.1
20260507042003 8 345 1.6 4.8 0.00 0.00 0.00 75 1013.0
20260507041003 7 241 0.0 1.6 0.00 0.00 0.00 80 1013.1
20260507040003 7 0 0.0 1.6 0.00 0.00 0.00 88 1013.1
20260507035003 5 0 0.0 1.6 0.00 0.00 0.00 98 1013.1
20260507034004 3 0 0.0 1.6 0.00 0.00 0.00 100 1013.1
20260507033004 0 0 0.0 1.6 0.00 0.00 0.00 100 1013.0
20260507032003 -1 0 0.0 1.6 0.00 0.00 0.00 100 1013.1
20260507031003 -2 0 0.0 1.6 0.00 0.00 0.00 100 1012.9
20260507030003 -2 0 0.0 1.6 0.00 0.00 0.00 100 1013.0
20260507025003 -2 0 0.0 1.6 0.00 0.00 0.00 100 1012.9
20260507022003 -2 0 0.0 0.0 0.00 0.00 0.00 100 1012.7
20260507021003 -2 0 0.0 0.0 0.00 0.00 0.00 100 1012.7
20260507020004 -2 0 0.0 0.0 0.00 0.00 0.00 100 1012.6
20260507015003 -2 181 0.0 1.6 0.00 0.00 0.00 100 1012.7
20260507014003 -2 0 0.0 0.0 0.00 0.00 0.00 100 1012.6
20260507013004 -2 0 0.0 0.0 0.00 0.00 0.00 100 1012.6
20260507012004 -2 0 0.0 0.0 0.00 0.00 0.00 100 1012.7
20260507011004 -2 0 0.0 0.0 0.00 0.00 0.00 100 1012.6
20260507010004 -2 0 0.0 0.0 0.00 0.00 0.00 100 1012.5
20260507005004 -1 0 0.0 0.0 0.00 0.00 0.00 100 1012.5
20260507004003 -1 0 0.0 1.6 0.00 0.00 0.00 100 1012.4
20260507003004 -1 0 0.0 1.6 0.00 0.00 0.00 100 1012.3
20260507002003 -1 181 0.0 1.6 0.00 0.00 0.00 100 1012.1
20260507001003 -1 0 0.0 0.0 0.00 0.00 0.00 100 1012.1
20260507000004 -1 0 0.0 1.6 0.00 0.00 0.00 100 1012.0
20260506235003 -1 181 0.0 1.6 0.00 0.00 0.00 100 1011.9
20260506233004 -1 202 1.6 4.8 0.00 0.00 0.00 100 1011.9
20260506232002 -1 189 0.0 4.8 0.00 0.00 0.00 100 1012.0
20260506231002 -1 0 0.0 0.0 0.00 0.00 0.00 100 1011.9
20260506230003 0 1 0.0 1.6 0.00 0.00 0.00 100 1011.9
20260506225001 0 1 0.0 1.6 0.00 0.00 0.00 100 1012.0
20260506224002 0 0 0.0 1.6 0.00 0.00 0.00 99 1011.8
20260506221002 0 20 0.0 4.8 0.00 0.00 0.00 94 1011.7
20260506220005 0 0 0.0 1.6 0.00 0.00 0.00 94 1011.7
20260506215002 0 181 0.0 1.6 0.00 0.00 0.00 93 1011.5
20260506214003 0 181 0.0 4.8 0.00 0.00 0.00 93 1011.4
20260506213003 0 0 0.0 1.6 0.00 0.00 0.00 90 1011.3
20260506212002 0 0 0.0 1.6 0.00 0.00 0.00 89 1011.2
20260506211002 1 135 0.0 1.6 0.00 0.00 0.00 88 1011.3
20260506210004 1 0 0.0 1.6 0.00 0.00 0.00 87 1011.0
20260506205002 1 181 0.0 1.6 0.00 0.00 0.00 86 1011.1
20260506204002 1 181 0.0 1.6 0.00 0.00 0.00 86 1010.9
20260506203003 1 0 0.0 1.6 0.00 0.00 0.00 85 1010.8
20260506202002 2 0 0.0 1.6 0.00 0.00 0.00 83 1010.8
20260506201002 2 171 0.0 1.6 0.00 0.00 0.00 82 1010.7
20260506200003 2 181 0.0 4.8 0.00 0.00 0.00 80 1010.6
20260506195002 3 0 0.0 1.6 0.00 0.00 0.00 79 1010.6
20260506194002 3 0 0.0 0.0 0.00 0.00 0.00 78 1010.6
20260506191002 6 181 0.0 1.6 0.00 0.00 0.00 71 1010.5
20260506190003 6 203 1.6 4.8 0.00 0.00 0.00 71 1010.3
20260506185002 6 205 1.6 4.8 0.00 0.00 0.00 71 1010.2
20260506184002 6 215 0.0 4.8 0.00 0.00 0.00 71 1010.1
20260506183003 6 197 0.0 4.8 0.00 0.00 0.00 71 1010.0
20260506182002 7 173 0.0 1.6 0.00 0.00 0.00 70 1009.8
20260506181002 7 181 0.0 1.6 0.00 0.00 0.00 70 1009.8
20260506175002 7 224 1.6 6.4 0.00 0.00 0.00 70 1009.9
20260506173003 7 184 0.0 4.8 0.00 0.00 0.00 70 1009.8
20260506172002 7 207 1.6 6.4 0.00 0.00 0.00 69 1009.6
20260506171003 7 216 3.2 8.0 0.00 0.00 0.00 69 1009.8
20260506170003 7 238 1.6 11.3 0.00 0.00 0.00 72 1009.7
20260506165002 7 315 1.6 6.4 0.00 0.00 0.00 75 1009.6
20260506162003 8 48 1.6 6.4 0.00 0.00 0.00 61 1009.1
20260506161003 8 91 3.2 8.0 0.00 0.00 0.00 62 1008.9
20260506160003 8 146 3.2 11.3 0.00 0.00 0.00 60 1008.8
20260506155003 8 146 3.2 11.3 0.00 0.00 0.00 65 1009.0
20260506154002 8 176 3.2 8.0 0.00 0.00 0.00 66 1009.0
20260506153004 8 105 3.2 8.0 0.00 0.00 0.00 67 1008.8
20260506152002 8 117 4.8 12.9 0.00 0.00 0.00 62 1008.5
20260506151002 8 107 6.4 14.5 0.00 0.00 0.00 62 1008.6
20260506150003 10 118 6.4 14.5 0.00 0.00 0.00 59 1008.6
20260506145003 12 128 4.8 12.9 0.00 0.00 0.00 57 1008.4
20260506144002 11 99 6.4 12.9 0.00 0.00 0.00 64 1008.4
20260506143003 8 102 4.8 12.9 0.00 0.00 0.00 65 1008.5
20260506142002 10 91 6.4 17.7 0.00 0.00 0.00 60 1008.6
20260506141002 10 113 4.8 11.3 0.00 0.00 0.00 62 1008.4
20260506135002 9 109 4.8 11.3 0.00 0.00 0.00 66 1008.6
20260506133003 8 124 6.4 14.5 0.00 0.03 0.00 67 1008.5
20260506131002 8 109 6.4 17.7 0.00 0.03 0.00 66 1008.4
20260506130004 9 110 8.0 17.7 0.00 0.03 0.00 67 1008.4